User: anonymous   Login
Location: Domont
(49.0278°N, 2.3264°E)
Time: 16:11:23
(UTC+00:00)
Language:

MOS 1-B Rocket - Orbit

View from above orbital plane
View from above orbital plane
View from above satellite
View from above satellite

Ground track
Ground track

The orbit data is extracted from the following two-line orbital elements,

1 20491U 90013D   22024.49224602 -.00000192  00000-0 -29178-3 0  9992
2 20491  99.0125 199.3082 0467824 322.8775  34.0813 13.03573688519931
Epoch (UTC): 24 January 2022 11:48:50
Eccentricity: 0.0467824
inclination: 99.0125°
perigee height: 891 km
apogee height: 1605 km
right ascension of ascending node: 199.3082°
argument of perigee: 322.8775°
revolutions per day: 13.03573688
mean anomaly at epoch: 34.0813°
orbit number at epoch: 51993

The dashed part of the orbit path shows where the satellite is in the earth's shadow,  

DLR